Regional Weather Roundup
Issued by NWS

Home | Current Version | Previous Version | Text Only | Print | Product List | Glossary On
Versions: 1 2 3 4 5 6 7 8 9 10 11 12 13 14 15 16 17 18 19 20 21 22 23 24 25 26 27 28 29 30 31 32 33 34 35 36 37 38 39 40 41 42 43 44 45 46 47 48 49 50
000
ASUS43 KTOP 250259
RWRKS

WEATHER ROUNDUP FOR KANSAS
NATIONAL WEATHER SERVICE GOODLAND KS
1000 PM CDT FRI MAR 24 2017

NOTE:  "FAIR" INDICATES FEW OR NO CLOUDS BELOW 12,000 FEET WITH NO
SIGNIFICANT WEATHER AND/OR OBSTRUCTIONS TO VISIBILITY.

KSZ001>006-013>018-027>032-041>047-250400-
NORTHWEST KANSAS

CITY           SKY/WX    TMP DP  RH WIND       PRES   REMARKS
GOODLAND       CLOUDY    38  37  97 N16       30.07R WCI  29
HAYS             N/A     41  39  93 N20G25    29.99S
HILL CITY      CLOUDY    43  40  89 N17G26    30.04R
RUSSELL        CLOUDY    42  38  85 N20       29.97R
$$

KSZ061>065-074>080-084>089-250400-
SOUTHWEST KANSAS

CITY           SKY/WX    TMP DP  RH WIND       PRES   REMARKS
DODGE CITY     CLOUDY    42  40  92 N20G31    29.98R
ELKHART          N/A     41  29  62 N20         N/A
GARDEN CITY    CLOUDY    42  38  85 N20G29    30.03R
GREAT BEND     LGT RAIN  42  40  92 N24G31    29.96S
LIBERAL        CLOUDY    45  36  70 N29G37    30.02R
$$

KSZ066>073-081>083-090>101-250400-
SOUTHEAST KANSAS

CITY           SKY/WX    TMP DP  RH WIND       PRES   REMARKS
CHANUTE        PTCLDY    59  56  89 SE6       29.78S
COFFEYVILLE    PTCLDY    58  55  90 E7        29.78R
HUTCHINSON     LGT RAIN  48  45  89 N13       29.88R
MEDICINE LODGE   N/A     49  42  77 N20G37    29.89R
NEWTON         LGT RAIN  51  48  89 NE15      29.84S
PARSONS        PTCLDY    61  56  83 CALM      29.79R
WICHITA INTL   MOCLDY    54  48  80 N16       29.85R
WICHITA JABRA  CLOUDY    52  49  89 N17G24    29.83R
WICHITA MCCONL LGT RAIN  54  48  82 N17G25    29.83R
WINFIELD       CLOUDY    60  51  72 NE10      29.77R
$$

KSZ007>012-019>026-033>040-048>060-102>105-250400-
NORTHEAST KANSAS

CITY           SKY/WX    TMP DP  RH WIND       PRES   REMARKS
CONCORDIA      CLOUDY    43  40  89 N16G25    29.96R
EMPORIA        LGT RAIN  52  51  97 NW12      29.85S
LAWRENCE       CLOUDY    60  58  92 SW12      29.83S
MANHATTAN      RAIN      49  48  97 VRB3      29.90F FOG
OLATHE IND     CLOUDY    59  55  87 E7        29.83F
OLATHE EXE     CLOUDY    58  56  93 CALM      29.83S
SALINA         CLOUDY    48  44  86 N22G29    29.92R
TOPEKA BILLARD CLOUDY    54  53  97 W9        29.83F THUNDER
TOPEKA FORBES  CLOUDY    56  51  84 NW17G25   29.84R
$$




USA.gov is the U.S. government's official web portal to all federal, state and local government web resources and services.